Terminal Aerodrome Forecast
Issued by NWS

Home | Current Version | Previous Version | Text Only | Print | Product List | Glossary On
Versions: 1 2 3 4 5 6 7 8 9 10 11 12 13 14 15 16
000
FTUS43 KAPX 260539
TAFMBL
TAF
KMBL 260539Z 2606/2706 20007KT P6SM SKC WS020/22040KT
     FM261400 21008G16KT P6SM VCSH BKN040 BKN250
     FM261800 21011G20KT P6SM BKN050
     FM270500 15006KT P6SM FEW070 BKN150
      AMD LTD TO CLD VIS AND WIND=

USA.gov is the U.S. government's official web portal to all federal, state and local government web resources and services.